Home > Weather > Barnstable > Past weeks

Flag for USA Past Weather in Barnstable, Massachusetts, USA — Yesterday and Last 2 Weeks

Now
80 °F

Sunny.


Feels Like: 81 °F
Forecast: 67 / 81 °F
Wind: 14 mph from Southwest

Location: Barnstable Municipal-Boardman Airport

Current Time: Aug 24, 2016 at 5:50:53 PM

Latest Report: Aug 24, 2016 at 4:56 PM


Visibility: 10 mi

Pressure: 30.17 "Hg

Humidity: 52%

Dew Point: 61 °F

Location of BarnstableLocation

Past Weather in Barnstable — Graph

°F

Barnstable Temperature Yesterday

Maximum temperature yesterday: 77 °F (at 12:56 PM)
Minimum temperature yesterday: 59 °F (at 3:56 AM)
Average temperature yesterday: 69 °F

High & Low Weather Summary for the Past Weeks

 TemperatureHumidityPressure
High92 °F (Aug 14, 2:56 PM)100% (Aug 21, 7:56 PM)30.28 "Hg (Aug 21, 7:56 PM)
Low59 °F (Aug 23, 3:56 AM)32% (Aug 23, 12:56 PM)29.73 "Hg (Aug 22, 4:56 AM)
Average76 °F75%30.01 "Hg
* Reported Aug 9 3:56 PM — Aug 24 3:56 PM, Barnstable, Weather by CustomWeather, © 2016

Note: Actual official high and low records may vary slightly from our data, if they occured in-between our weather recording intervals... More about our weather records

Advertising

Barnstable Weather History for the Previous 24 Hours

Scroll right to see more
 ConditionsComfort  
Time TempWeatherWind HumidityBarometerVisibility
3:56 PM
Wed, Aug 24
81 °FSunny.15 mph54%30.19 "Hg10 mi
2:56 PM81 °FSunny.13 mph56%30.19 "Hg10 mi
1:56 PM81 °FSunny.15 mph53%30.21 "Hg10 mi
12:56 PM82 °FSunny.13 mph44%30.21 "Hg10 mi
11:56 AM82 °FSunny.14 mph49%30.22 "Hg10 mi
10:56 AM80 °FPassing clouds.9 mph56%30.23 "Hg10 mi
9:56 AM79 °FSunny.8 mph56%30.25 "Hg10 mi
8:56 AM76 °FSunny.12 mph67%30.25 "Hg10 mi
7:56 AM72 °FSunny.9 mph76%30.25 "Hg10 mi
6:56 AM68 °FClear.6 mph84%30.25 "Hg10 mi
5:56 AM65 °FClear.5 mph87%30.24 "Hg10 mi
4:56 AM66 °FClear.6 mph84%30.24 "Hg10 mi
3:56 AM64 °FClear.5 mph84%30.24 "Hg10 mi
2:56 AM65 °FClear.5 mph78%30.24 "Hg10 mi
1:56 AM66 °FClear.7 mph78%30.25 "Hg10 mi
12:56 AM67 °FClear.7 mph76%30.25 "Hg10 mi
11:56 PM
Tue, Aug 23
68 °FClear.9 mph70%30.25 "Hg10 mi
10:56 PM68 °FClear.12 mph68%30.25 "Hg10 mi
9:56 PM69 °FClear.9 mph61%30.24 "Hg10 mi
8:56 PM69 °FClear.10 mph59%30.23 "Hg10 mi
7:56 PM70 °FSunny.12 mph53%30.22 "Hg10 mi
6:56 PM73 °FSunny.13 mph50%30.22 "Hg10 mi
5:56 PM75 °FSunny.16 mph47%30.22 "Hg10 mi
Weather by CustomWeather, © 2016

See weather overviewHow to use our weather pages